Regional Weather Roundup
Issued by NWS

Home | Current Version | Previous Version | Text Only | Print | Product List | Glossary Off
Versions: 1 2 3 4 5 6 7 8 9 10 11 12 13 14 15 16 17 18 19 20 21 22 23 24 25 26 27 28 29 30 31 32 33 34 35 36 37 38 39 40 41 42 43 44 45 46 47 48 49 50

000
ASUS43 KBIS 182110
RWRND

NORTH DAKOTA REGIONAL WEATHER ROUNDUP
NATIONAL WEATHER SERVICE BISMARCK ND
300 PM CST THU JAN 18 2018

NOTE: "FAIR" INDICATES FEW OR NO CLOUDS BELOW 12,000 FEET WITH NO
SIGNIFICANT WEATHER AND/OR OBSTRUCTIONS TO VISIBILITY.


NDZ001>003-009>011-017-182200-
NORTHWEST NORTH DAKOTA

CITY           SKY/WX    TMP DP  RH WIND       PRES   REMARKS
WILLISTON      FAIR      38  27  64 SW7       29.65F
MINOT          FAIR      38  26  62 SW18      29.59F
MINOT AFB      FAIR      38  28  66 SW6       29.57F
$$

NDZ018>021-031>035-040>046-182200-
SOUTHWEST NORTH DAKOTA

CITY           SKY/WX    TMP DP  RH WIND       PRES   REMARKS
BISMARCK       FAIR      36  27  69 SW5       29.72F
DICKINSON      FAIR      41  28  60 W15       29.67F
GARRISON         N/A     34  26  72 S5        29.65F
HETTINGER ARPT FAIR      43  27  53 W6        29.73F
$$

NDZ004>008-012>016-024-026-027-054-182200-
NORTHEAST NORTH DAKOTA

CITY           SKY/WX    TMP DP  RH WIND       PRES   REMARKS
GRAND FORKS    PTSUNNY   28  22  78 S7        29.71F
GRND FRKS AFB  FAIR      29  21  72 S6        29.70F
DEVILS LAKE    FAIR      29  22  75 SW6       29.68F
$$

NDZ022-023-025-028>030-036>039-047>053-182200-
SOUTHEAST NORTH DAKOTA

CITY           SKY/WX    TMP DP  RH WIND       PRES   REMARKS
FARGO          FAIR      28  23  81 SW6       29.78S
JAMESTOWN      FAIR      35  26  69 W7        29.70F
$$




USA.gov is the U.S. government's official web portal to all federal, state and local government web resources and services.